Nassau, Bahamas

4:22 AM EST on February 18, 2018 (GMT -0500)
Nassau International

Weather History for MYNN - January, 2014

Change the Weather History Date:

Friday, January 24, 2014

  Actual Average Record
Temperature  
Mean Temperature 68 °F -  
Max Temperature 74 °F 78 °F 84 °F (2007)
Min Temperature 62 °F 62 °F 56 °F (2016)
Cooling Degree Days 3    
Growing Degree Days 18 (Base 50)    
Moisture  
Dew Point 59 °F    
Average Humidity 71    
Maximum Humidity 94    
Minimum Humidity 53    
Precipitation  
Precipitation 0.00 in 0.05 in - ()
Sea Level Pressure  
Sea Level Pressure 30.23 in    
Wind  
Wind Speed 4 mph ()    
Max Wind Speed 15 mph    
Max Gust Speed -    
Visibility 6.8 miles    
Events      
Averages and records for this station are not official NWS values.
T = Trace of Precipitation, MM = Missing Value Source: Averaged Metar Reports

Daily Weather History Graph

Daily Weather History Graph

Search for Another Location

Airport or City:

Trip Planner

Search our weather history database for the weather conditions in past years. The results will help you decide how hot, cold, wet, or windy it might be!

Date:

Astronomy

Jan. 24, 2014 Rise Set
Actual Time 6:55 AM EST 5:48 PM EST
Civil Twilight 6:31 AM EST 6:13 PM EST
Nautical Twilight 6:03 AM EST 6:40 PM EST
Astronomical Twilight 5:36 AM EST 7:08 PM EST
Moon 12:29 AM EST (1/24) 11:59 AM EST (1/24)
Length of Visible Light 11h 41m
Length of Day
10h 53m
Last Quarter, 45% of the Moon is Illuminated
Jan 24
Last Quarter
Jan 30
New
Feb 6
First Quarter
Feb 14
Full
Feb 22
Last Quarter

Hourly Weather History & Observations

Time (EST) Temp. Dew Point Humidity Pressure Visibility Wind Dir Wind Speed Gust Speed Precip Events Conditions
12:00 AM 66.2 °F 57.2 °F 73% 30.23 in 6.2 mi Calm Calm - N/A   Partly Cloudy
1:00 AM 62 °F 57 °F 77% 30.22 in 9 mi Calm Calm - -   Scattered Clouds
1:00 AM 62.6 °F 57.2 °F 82% 30.22 in 6.2 mi Calm Calm - N/A   Partly Cloudy
2:00 AM 64.4 °F 57.2 °F 77% 30.21 in 6.2 mi Calm Calm - N/A   Scattered Clouds
4:00 AM 64 °F 61 °F 87% 30.22 in 9 mi Calm Calm - -   Mostly Cloudy
4:00 AM 64.4 °F 60.8 °F 88% 30.22 in 6.2 mi Calm Calm - N/A   Mostly Cloudy
5:00 AM 66.2 °F 57.2 °F 73% 30.21 in 6.2 mi Calm Calm - N/A   Mostly Cloudy
7:00 AM 65 °F 62 °F 86% 30.25 in 9 mi Calm Calm - -  
7:00 AM 64.4 °F 62.6 °F 94% 30.24 in 6.2 mi Calm Calm - N/A   Scattered Clouds
8:00 AM 69.8 °F 60.8 °F 73% 30.26 in 6.2 mi Calm Calm - N/A   Scattered Clouds
9:00 AM 73.4 °F 59.0 °F 61% 30.27 in 6.2 mi NE 4.6 mph - N/A   Scattered Clouds
10:00 AM 72 °F 64 °F 69% 30.29 in 9 mi NNE 11.5 mph - -   Mostly Cloudy
10:00 AM 71.6 °F 64.4 °F 78% 30.29 in 6.2 mi NNE 11.5 mph - N/A   Mostly Cloudy
11:00 AM 71.6 °F 59.0 °F 64% 30.30 in 6.2 mi North 11.5 mph - N/A   Mostly Cloudy
12:00 PM 71.6 °F 59.0 °F 64% 30.28 in 6.2 mi NNE 15.0 mph - N/A   Mostly Cloudy
1:00 PM 73 °F 64 °F 66% 30.24 in 9 mi NNE 12.7 mph - -   Mostly Cloudy
1:00 PM 73.4 °F 64.4 °F 73% 30.23 in 6.2 mi NNE 12.7 mph - N/A   Mostly Cloudy
2:00 PM 71.6 °F 57.2 °F 60% 30.21 in 6.2 mi NNE 11.5 mph - N/A   Mostly Cloudy
3:00 PM 73.4 °F 55.4 °F 53% 30.21 in 6.2 mi ENE 11.5 mph - N/A   Scattered Clouds
4:00 PM 74 °F 62 °F 58% 30.20 in 9 mi ENE 11.5 mph - -   Mostly Cloudy
4:00 PM 73.4 °F 62.6 °F 69% 30.22 in 6.2 mi ENE 11.5 mph - N/A   Scattered Clouds
5:00 PM 71.6 °F 55.4 °F 57% 30.22 in 6.2 mi NNE 8.1 mph - N/A   Scattered Clouds
6:00 PM 69.8 °F 53.6 °F 56% 30.21 in 6.2 mi NNE 8.1 mph - N/A   Scattered Clouds
7:00 PM 68.0 °F 60.8 °F 78% 30.23 in 6.2 mi NE 4.6 mph - N/A   Scattered Clouds
8:00 PM 69.8 °F 55.4 °F 60% 30.22 in 6.2 mi NE 4.6 mph - N/A   Scattered Clouds
9:00 PM 69.8 °F 55.4 °F 60% 30.23 in 6.2 mi NE 6.9 mph - N/A   Scattered Clouds
10:00 PM 69.8 °F 60.8 °F 73% 30.22 in 6.2 mi ENE 8.1 mph - N/A   Scattered Clouds
11:00 PM 68.0 °F 57.2 °F 68% 30.20 in 6.2 mi ENE 4.6 mph - N/A   Scattered Clouds